Weather History for Port Clinton Carl R Keller Fi, OH

Change the Weather History Date:

Sunday, March 23, 2014

  Actual Average (KTOL) Record (KTOL)
Temperature  
Mean Temperature 27 °F 40 °F  
Max Temperature 35 °F 50 °F 73 °F (1988)
Min Temperature 19 °F 31 °F 5 °F (1888)
Degree Days  
Heating Degree Days 38 25  
Month to date heating degree days 666  
Since 1 July heating degree days 5242  
Cooling Degree Days 0 0  
Month to date cooling degree days 0  
Year to date cooling degree days 0  
Moisture  
Dew Point 13 °F    
Average Humidity 63    
Maximum Humidity 87    
Minimum Humidity 50    
Precipitation  
Precipitation 0.00 in 0.08 in 0.75 in (1993)
Month to date precipitation 1.77  
Year to date precipitation 5.89  
Snow  
Snow 0.00 in 0.10 in - ()
Month to date snowfall 4.7  
Since 1 July snowfall 35.2  
Snow Depth -    
Sea Level Pressure  
Sea Level Pressure 30.29 in    
Wind  
Wind Speed 10 mph (North)    
Max Wind Speed 15 mph    
Max Gust Speed -    
Visibility 10 miles    
Events      
T = Trace of Precipitation, MM = Missing Value Source: NWS Daily Summary

Daily Weather History Graph

Daily Weather History Graph

Search for Another Location

Airport:

Trip Planner

Search our weather history database for the weather conditions in past years. The results will help you decide how hot, cold, wet, or windy it might be!

Date:

Astronomy

Mar. 23, 2014 Rise Set
Actual Time 7:29 AM EDT 7:46 PM EDT
Civil Twilight 7:02 AM EDT 8:14 PM EDT
Nautical Twilight 6:29 AM EDT 8:47 PM EDT
Astronomical Twilight 5:56 AM EDT 9:20 PM EDT
Moon 2:06 AM EDT (3/23) 12:06 PM EDT (3/23)
Length of Visible Light 13h 12m
Length of Day
12h 17m
Waning Gibbous, 55% of the Moon is Illuminated
Mar 23
Waning Gibbous
Mar 23
Last Quarter
Mar 30
New
Apr 7
First Quarter
Apr 15
Full

Hourly Weather History & Observations

Time (EDT) Temp. Windchill Dew Point Humidity Pressure Visibility Wind Dir Wind Speed Gust Speed Precip Events Conditions
12:13 AM 33.8 °F 27.7 °F 30.2 °F 87% 30.18 in 10.0 mi North 6.9 mph - N/A   Mostly Cloudy
12:34 AM 33.8 °F 27.7 °F 30.2 °F 87% 30.18 in 10.0 mi North 6.9 mph - N/A   Overcast
12:53 AM 33.8 °F 27.0 °F 28.4 °F 81% 30.18 in 10.0 mi North 8.1 mph - N/A   Overcast
1:13 AM 35.6 °F 28.6 °F 28.4 °F 75% 30.18 in 10.0 mi NNW 9.2 mph - N/A   Overcast
1:33 AM 33.8 °F 23.9 °F 26.6 °F 75% 30.19 in 10.0 mi North 15.0 mph - N/A   Overcast
1:44 AM 32.0 °F 22.1 °F 26.6 °F 80% 30.20 in 10.0 mi North 13.8 mph - N/A   Overcast
2:14 AM 30.2 °F 19.8 °F 21.2 °F 69% 30.21 in 10.0 mi North 13.8 mph - N/A   Overcast
2:33 AM 28.4 °F 17.5 °F 19.4 °F 69% 30.21 in 10.0 mi NNE 13.8 mph - N/A   Overcast
2:54 AM 26.6 °F 16.8 °F 19.4 °F 74% 30.22 in 10.0 mi NNE 10.4 mph - N/A   Overcast
3:13 AM 24.8 °F 14.0 °F 17.6 °F 74% 30.23 in 10.0 mi NNE 11.5 mph - N/A   Overcast
3:34 AM 24.8 °F 12.4 °F 15.8 °F 69% 30.23 in 10.0 mi North 15.0 mph - N/A   Overcast
3:54 AM 24.1 °F 12.5 °F 14.0 °F 65% 30.23 in 10.0 mi NNE 12.7 mph - N/A   Overcast
4:13 AM 24.8 °F 13.4 °F 14.0 °F 64% 30.23 in 10.0 mi North 12.7 mph - N/A   Mostly Cloudy
4:34 AM 23.0 °F 10.1 °F 12.2 °F 63% 30.25 in 10.0 mi North 15.0 mph - N/A   Scattered Clouds
4:53 AM 23.0 °F 11.7 °F 10.4 °F 59% 30.25 in 10.0 mi North 11.5 mph - N/A   Mostly Cloudy
5:13 AM 21.2 °F 8.9 °F 8.6 °F 58% 30.25 in 10.0 mi NNE 12.7 mph - N/A   Partly Cloudy
5:34 AM 21.2 °F 8.3 °F 8.6 °F 58% 30.26 in 10.0 mi North 13.8 mph - N/A   Clear
5:53 AM 21.0 °F 8.1 °F 7.2 °F 55% 30.27 in 10.0 mi North 13.8 mph - N/A   Clear
6:14 AM 21.2 °F 10.1 °F 8.6 °F 58% 30.27 in 10.0 mi North 10.4 mph - N/A   Clear
6:33 AM 21.2 °F 9.5 °F 8.6 °F 58% 30.28 in 10.0 mi North 11.5 mph - N/A   Clear
6:53 AM 19.0 °F 5.0 °F 6.1 °F 57% 30.29 in 10.0 mi North 15.0 mph - N/A   Clear
7:14 AM 19.4 °F 6.0 °F 5.0 °F 54% 30.30 in 10.0 mi North 13.8 mph - N/A   Clear
7:33 AM 19.4 °F 7.9 °F 5.0 °F 54% 30.31 in 10.0 mi North 10.4 mph - N/A   Clear
7:53 AM 19.0 °F 8.2 °F 5.0 °F 54% 30.32 in 10.0 mi North 9.2 mph - N/A   Clear
8:14 AM 21.2 °F 8.9 °F 8.6 °F 58% 30.32 in 10.0 mi North 12.7 mph - N/A   Clear
8:33 AM 21.2 °F 10.1 °F 8.6 °F 58% 30.33 in 10.0 mi North 10.4 mph - N/A   Clear
8:53 AM 21.0 °F 8.6 °F 8.1 °F 57% 30.32 in 10.0 mi North 12.7 mph - N/A   Clear
9:14 AM 21.2 °F 10.1 °F 8.6 °F 58% 30.32 in 10.0 mi North 10.4 mph - N/A   Clear
9:33 AM 23.0 °F 12.4 °F 8.6 °F 54% 30.32 in 10.0 mi North 10.4 mph - N/A   Clear
9:53 AM 21.0 °F 9.9 °F 6.1 °F 53% 30.33 in 10.0 mi North 10.4 mph - N/A   Clear
10:14 AM 21.2 °F 9.5 °F 6.8 °F 54% 30.34 in 10.0 mi North 11.5 mph - N/A   Clear
10:33 AM 21.2 °F 10.9 °F 8.6 °F 58% 30.33 in 10.0 mi North 9.2 mph - N/A   Clear
10:54 AM 23.0 °F 12.4 °F 8.6 °F 54% 30.33 in 10.0 mi NNW 10.4 mph - N/A   Clear
11:14 AM 21.2 °F 9.5 °F 10.4 °F 63% 30.35 in 10.0 mi North 11.5 mph - N/A   Clear
11:33 AM 23.0 °F 12.4 °F 10.4 °F 59% 30.35 in 10.0 mi NNW 10.4 mph - N/A   Clear
11:54 AM 22.1 °F 11.3 °F 11.1 °F 63% 30.34 in 7.0 mi North 10.4 mph - N/A   Clear
12:13 PM 21.2 °F 10.1 °F 8.6 °F 58% 30.34 in 8.0 mi North 10.4 mph - N/A   Clear
12:34 PM 24.8 °F 14.0 °F 12.2 °F 59% 30.34 in 10.0 mi NNW 11.5 mph - N/A   Clear
12:54 PM 25.2 °F 15.1 °F 14.0 °F 63% 30.34 in 10.0 mi NNW 10.4 mph - N/A   Clear
1:13 PM 24.8 °F 15.3 °F 12.2 °F 59% 30.33 in 10.0 mi North 9.2 mph - N/A   Clear
1:34 PM 24.8 °F 14.6 °F 12.2 °F 59% 30.33 in 10.0 mi North 10.4 mph - N/A   Clear
1:54 PM 24.1 °F 13.7 °F 13.1 °F 63% 30.33 in 10.0 mi North 10.4 mph - N/A   Clear
2:13 PM 24.8 °F 16.1 °F 12.2 °F 59% 30.33 in 10.0 mi NNW 8.1 mph - N/A   Clear
2:34 PM 24.8 °F 16.1 °F 12.2 °F 59% 30.32 in 10.0 mi NW 8.1 mph - N/A   Clear
2:54 PM 26.6 °F 18.2 °F 15.8 °F 64% 30.31 in 10.0 mi NW 8.1 mph - N/A   Clear
3:13 PM 26.6 °F 17.5 °F 14.0 °F 59% 30.30 in 10.0 mi North 9.2 mph - N/A   Clear
3:34 PM 28.4 °F 20.4 °F 14.0 °F 55% 30.30 in 10.0 mi NW 8.1 mph - N/A   Clear
3:53 PM 26.1 °F 17.6 °F 14.0 °F 60% 30.30 in 10.0 mi North 8.1 mph - N/A   Clear
4:13 PM 24.8 °F 15.3 °F 12.2 °F 59% 30.30 in 10.0 mi NNE 9.2 mph - N/A   Clear
4:34 PM 24.8 °F 16.9 °F 10.4 °F 54% 30.30 in 10.0 mi NNE 6.9 mph - N/A   Clear
4:53 PM 24.8 °F 20.5 °F 8.6 °F 50% 30.29 in 10.0 mi Variable 3.5 mph - N/A   Partly Cloudy
5:14 PM 26.6 °F 19.1 °F 12.2 °F 55% 30.29 in 10.0 mi Variable 6.9 mph - N/A   Mostly Cloudy
5:34 PM 24.8 °F 20.5 °F 10.4 °F 54% 30.30 in 10.0 mi NNE 3.5 mph - N/A   Overcast
5:53 PM 25.2 °F - 10.0 °F 53% 30.30 in 10.0 mi Calm Calm - N/A   Overcast
6:14 PM 24.8 °F 20.5 °F 10.4 °F 54% 30.30 in 10.0 mi Variable 3.5 mph - N/A   Overcast
6:34 PM 26.6 °F 21.2 °F 12.2 °F 55% 30.29 in 10.0 mi Variable 4.6 mph - N/A   Overcast
6:53 PM 24.1 °F 17.0 °F 11.1 °F 58% 30.29 in 10.0 mi North 5.8 mph - N/A   Overcast
7:14 PM 28.4 °F 19.7 °F 14.0 °F 55% 30.31 in 10.0 mi North 9.2 mph - N/A   Overcast
7:34 PM 26.6 °F 17.5 °F 14.0 °F 59% 30.31 in 10.0 mi WNW 9.2 mph - N/A   Overcast
7:53 PM 26.6 °F 16.8 °F 14.0 °F 59% 30.31 in 10.0 mi WNW 10.4 mph - N/A   Overcast
8:14 PM 24.8 °F 17.9 °F 12.2 °F 59% 30.31 in 10.0 mi ENE 5.8 mph - N/A   Overcast
8:33 PM 23.0 °F 15.8 °F 12.2 °F 63% 30.32 in 10.0 mi ENE 5.8 mph - N/A   Overcast
8:53 PM 21.2 °F 14.9 °F 12.2 °F 68% 30.33 in 10.0 mi ENE 4.6 mph - N/A   Overcast
9:14 PM 21.2 °F 14.9 °F 12.2 °F 68% 30.33 in 10.0 mi East 4.6 mph - N/A   Overcast
9:33 PM 21.2 °F 14.9 °F 14.0 °F 74% 30.33 in 10.0 mi East 4.6 mph - N/A   Overcast
9:53 PM 22.1 °F 15.9 °F 14.0 °F 71% 30.33 in 10.0 mi East 4.6 mph - N/A   Mostly Cloudy
10:14 PM 21.2 °F 13.6 °F 12.2 °F 68% 30.33 in 10.0 mi East 5.8 mph - N/A   Mostly Cloudy
10:33 PM 21.2 °F 16.4 °F 14.0 °F 74% 30.33 in 10.0 mi East 3.5 mph - N/A   Overcast
10:54 PM 21.2 °F - 15.8 °F 80% 30.33 in 10.0 mi Calm Calm - N/A   Overcast
11:13 PM 21.2 °F 16.4 °F 15.8 °F 80% 30.34 in 10.0 mi ESE 3.5 mph - N/A   Overcast
11:33 PM 21.2 °F 16.4 °F 15.8 °F 80% 30.34 in 10.0 mi ESE 3.5 mph - N/A   Overcast
11:54 PM 22.1 °F - 15.1 °F 74% 30.33 in 10.0 mi Calm Calm - N/A   Overcast